,,Stat5,,Stat1,,Stat2,,Stat3,,Stat4,,Wind1,,Wind1,
time,status,PA1M_AVG,status,PR1M_SUM,status,RH1M_AVG,status,SR1M_AVG,status,TA1M_AVG,status,W1dAve1m,status,W1sAve1m,
2001-08-22, 00:00:00,VALID,918.43,VALID,0,VALID,97.1277,VALID,0,VALID,19.9417,VALID,360,VALID,0,
2001-08-22, 00:01:01,VALID,918.412,VALID,0,VALID,97.1074,VALID,-0.0169808,VALID,19.9581,VALID,360,VALID,0,
2001-08-22, 00:02:01,VALID,918.364,VALID,0,VALID,97.0756,VALID,0,VALID,19.9678,VALID,360,VALID,0,
2001-08-22, 00:03:01,VALID,918.357,VALID,0,VALID,97.0374,VALID,0,VALID,19.9678,VALID,2,VALID,0.144737,
2001-08-22, 00:04:01,VALID,918.338,VALID,0,VALID,96.998,VALID,0,VALID,19.9807,VALID,13,VALID,0.645616,
2001-08-22, 00:05:00,VALID,918.313,VALID,0,VALID,96.9459,VALID,0.0169808,VALID,19.9805,VALID,6,VALID,0.820703,
2001-08-22, 00:06:01,VALID,918.299,VALID,0,VALID,96.9408,VALID,0,VALID,19.9877,VALID,5,VALID,0.766992,
2001-08-22, 00:07:01,VALID,918.302,VALID,0,VALID,96.9141,VALID,0,VALID,19.9805,VALID,6,VALID,0.541735,
2001-08-22, 00:08:00,VALID,918.313,VALID,0,VALID,96.8518,VALID,0,VALID,19.971,VALID,5,VALID,0.39577,
2001-08-22, 00:09:01,VALID,918.323,VALID,0,VALID,96.8149,VALID,0.0169808,VALID,19.9579,VALID,358,VALID,0.565304,
2001-08-22, 00:10:01,VALID,918.333,VALID,0,VALID,96.8352,VALID,0,VALID,19.9514,VALID,2,VALID,0.855785,
2001-08-22, 00:11:01,VALID,918.316,VALID,0,VALID,96.8607,VALID,0.0169808,VALID,19.932,VALID,2,VALID,0.88528,
2001-08-22, 00:12:01,VALID,918.301,VALID,0,VALID,96.8785,VALID,0,VALID,19.9159,VALID,1,VALID,0.69109,
2001-08-22, 00:13:01,VALID,918.293,VALID,0,VALID,96.9242,VALID,0.0169808,VALID,19.9099,VALID,352,VALID,0.657858,
2001-08-22, 00:14:01,VALID,918.299,VALID,0,VALID,97.0145,VALID,0.0169808,VALID,19.9132,VALID,347,VALID,0.554878,
2001-08-22, 00:15:01,VALID,918.277,VALID,0,VALID,97.0336,VALID,-0.118866,VALID,19.9079,VALID,357,VALID,0.602163,
2001-08-22, 00:16:01,VALID,918.276,VALID,0,VALID,97.0908,VALID,-0.0849042,VALID,19.8883,VALID,9,VALID,0.735377,
2001-08-22, 00:17:01,VALID,918.266,VALID,0,VALID,97.1137,VALID,-0.101885,VALID,19.8913,VALID,6,VALID,0.615132,
2001-08-22, 00:18:01,VALID,918.26,VALID,0,VALID,97.162,VALID,-0.101885,VALID,19.8945,VALID,2,VALID,0.772059,
2001-08-22, 00:19:01,VALID,918.253,VALID,0,VALID,97.2002,VALID,-0.101885,VALID,19.8978,VALID,1,VALID,1.04015,
2001-08-22, 00:20:01,VALID,918.249,VALID,0,VALID,97.1722,VALID,-0.0509425,VALID,19.898,VALID,3,VALID,0.773201,
2001-08-22, 00:21:01,VALID,918.24,VALID,0,VALID,97.1913,VALID,-0.101885,VALID,19.9015,VALID,5,VALID,0.780828,
2001-08-22, 00:22:01,VALID,918.242,VALID,0,VALID,97.1493,VALID,-0.0679233,VALID,19.892,VALID,10,VALID,0.580882,
2001-08-22, 00:23:01,VALID,918.228,VALID,0,VALID,97.162,VALID,-0.0849042,VALID,19.8978,VALID,21,VALID,0.908995,
2001-08-22, 00:24:01,VALID,918.206,VALID,0,VALID,97.1366,VALID,-0.101885,VALID,19.9112,VALID,17,VALID,0.725329,
2001-08-22, 00:25:01,VALID,918.179,VALID,0,VALID,97.1353,VALID,-0.0849042,VALID,19.9109,VALID,25,VALID,0.648232,
2001-08-22, 00:26:01,VALID,918.171,VALID,0,VALID,97.1188,VALID,-0.0509425,VALID,19.9045,VALID,20,VALID,0.742857,
2001-08-22, 00:27:01,VALID,918.18,VALID,0,VALID,97.0896,VALID,-0.0679233,VALID,19.8975,VALID,13,VALID,0.80891,
2001-08-22, 00:28:01,VALID,918.185,VALID,0,VALID,97.0641,VALID,-0.101885,VALID,19.9119,VALID,2,VALID,0.893612,
2001-08-22, 00:29:01,VALID,918.208,VALID,0,VALID,97.0552,VALID,-0.0679233,VALID,19.895,VALID,343,VALID,0.857052,
2001-08-22, 00:30:01,VALID,918.207,VALID,0,VALID,97.1137,VALID,0.0339617,VALID,19.9005,VALID,348,VALID,0.985107,
2001-08-22, 00:31:01,VALID,918.184,VALID,0,VALID,97.101,VALID,-0.0169808,VALID,19.8871,VALID,13,VALID,0.885817,
2001-08-22, 00:32:00,VALID,918.175,VALID,0,VALID,97.0883,VALID,0.0339617,VALID,19.8871,VALID,11,VALID,0.605134,
2001-08-22, 00:33:00,VALID,918.186,VALID,0,VALID,97.0819,VALID,0,VALID,19.8905,VALID,359,VALID,0.576858,
2001-08-22, 00:34:00,VALID,918.179,VALID,0,VALID,97.0463,VALID,0.0169808,VALID,19.8739,VALID,9,VALID,0.637408,
2001-08-22, 00:35:00,VALID,918.18,VALID,0,VALID,97.04,VALID,0.0169808,VALID,19.8801,VALID,15,VALID,1.00169,
2001-08-22, 00:36:00,VALID,918.16,VALID,0,VALID,97.0234,VALID,0,VALID,19.8838,VALID,13,VALID,0.943462,
2001-08-22, 00:37:00,VALID,918.146,VALID,0,VALID,96.9815,VALID,0,VALID,19.8876,VALID,34,VALID,1.09786,
2001-08-22, 00:38:00,VALID,918.123,VALID,0,VALID,96.923,VALID,0.0169808,VALID,19.8836,VALID,17,VALID,0.868304,
2001-08-22, 00:39:00,VALID,918.117,VALID,0,VALID,96.8289,VALID,0,VALID,19.8831,VALID,17,VALID,0.692145,
2001-08-22, 00:40:00,VALID,918.094,VALID,0,VALID,96.7259,VALID,0,VALID,19.8833,VALID,24,VALID,0.675551,
2001-08-22, 00:41:00,VALID,918.086,VALID,0,VALID,96.6483,VALID,0.0509425,VALID,19.8868,VALID,31,VALID,0.774282,
2001-08-22, 00:42:00,VALID,918.068,VALID,0,VALID,96.5402,VALID,0,VALID,19.8704,VALID,27,VALID,0.658203,
2001-08-22, 00:43:00,VALID,918.069,VALID,0,VALID,96.5084,VALID,0,VALID,19.8672,VALID,4,VALID,0.371595,
2001-08-22, 00:44:00,VALID,918.085,VALID,0,VALID,96.469,VALID,0,VALID,19.8709,VALID,9,VALID,0.304688,
2001-08-22, 00:45:00,VALID,918.077,VALID,0,VALID,96.4296,VALID,0,VALID,19.8736,VALID,359,VALID,0.580025,
2001-08-22, 00:46:00,VALID,918.099,VALID,0,VALID,96.3927,VALID,0.0169808,VALID,19.8707,VALID,1,VALID,0.472656,
2001-08-22, 00:47:00,VALID,918.093,VALID,0,VALID,96.3304,VALID,0.0169808,VALID,19.8672,VALID,1,VALID,0.756757,
2001-08-22, 00:48:00,VALID,918.088,VALID,0,VALID,96.2592,VALID,0,VALID,19.8806,VALID,8,VALID,0.697574,
2001-08-22, 00:49:00,VALID,918.068,VALID,0,VALID,96.1575,VALID,0.0509425,VALID,19.8736,VALID,11,VALID,1.04523,
2001-08-22, 00:50:00,VALID,918.042,VALID,0,VALID,96.0278,VALID,0.0169808,VALID,19.8672,VALID,3,VALID,0.672321,
2001-08-22, 00:51:00,VALID,918.036,VALID,0,VALID,96.0201,VALID,0.0169808,VALID,19.8804,VALID,5,VALID,0.502956,
2001-08-22, 00:52:00,VALID,918.022,VALID,0,VALID,96.0036,VALID,0.0169808,VALID,19.8905,VALID,360,VALID,0.808594,
2001-08-22, 00:53:00,VALID,918.023,VALID,0,VALID,95.9807,VALID,0,VALID,19.8995,VALID,2,VALID,0.893792,
2001-08-22, 00:54:00,VALID,918.011,VALID,0,VALID,95.9362,VALID,0.0169808,VALID,19.9129,VALID,360,VALID,0.671387,
2001-08-22, 00:55:00,VALID,918.022,VALID,0,VALID,95.8777,VALID,-0.0169808,VALID,19.9358,VALID,359,VALID,0.514824,
2001-08-22, 00:56:00,VALID,918.017,VALID,0,VALID,95.8383,VALID,0.0169808,VALID,19.9221,VALID,350,VALID,0.354688,
2001-08-22, 00:57:00,VALID,918.018,VALID,0,VALID,95.8179,VALID,0,VALID,19.9191,VALID,334,VALID,0.433277,
2001-08-22, 00:58:00,VALID,918.015,VALID,0,VALID,95.7417,VALID,0.0169808,VALID,19.9653,VALID,307,VALID,0.189568,
2001-08-22, 00:59:00,VALID,918.035,VALID,0,VALID,95.6361,VALID,-0.0169808,VALID,19.9681,VALID,303,VALID,0.0559544,
2001-08-22, 01:00:00,VALID,918.047,VALID,0,VALID,95.4848,VALID,0,VALID,19.9807,VALID,327,VALID,0.24116,
2001-08-22, 01:01:00,VALID,918.052,VALID,0,VALID,95.3589,VALID,0.0169808,VALID,19.9837,VALID,351,VALID,0.894326,
2001-08-22, 01:02:00,VALID,918.038,VALID,0,VALID,95.233,VALID,0.0169808,VALID,19.9969,VALID,10,VALID,0.965848,
2001-08-22, 01:03:00,VALID,918.029,VALID,0,VALID,95.1109,VALID,0,VALID,20.0265,VALID,17,VALID,1.36128,
2001-08-22, 01:04:00,VALID,918.031,VALID,0,VALID,94.9685,VALID,0.0169808,VALID,19.9999,VALID,16,VALID,1.17188,
2001-08-22, 01:05:00,VALID,918.03,VALID,0,VALID,94.9316,VALID,0.0169808,VALID,19.9643,VALID,357,VALID,0.824324,
2001-08-22, 01:06:00,VALID,918.026,VALID,0,VALID,94.9863,VALID,0,VALID,19.9415,VALID,341,VALID,0.577393,
2001-08-22, 01:07:00,VALID,918.014,VALID,0,VALID,95.0499,VALID,0.0169808,VALID,19.9415,VALID,337,VALID,0.401042,
2001-08-22, 01:08:00,VALID,917.993,VALID,0,VALID,95.0677,VALID,0.0339617,VALID,19.9549,VALID,11,VALID,0.354911,
2001-08-22, 01:09:00,VALID,917.995,VALID,0,VALID,95.1135,VALID,0.0169808,VALID,19.9479,VALID,288,VALID,0.326858,
2001-08-22, 01:10:00,VALID,917.988,VALID,0,VALID,95.2813,VALID,0,VALID,19.9743,VALID,248,VALID,0.19807,
2001-08-22, 01:11:00,VALID,917.987,VALID,0,VALID,95.4441,VALID,0.0169808,VALID,19.9609,VALID,248,VALID,0.12859,
2001-08-22, 01:12:00,VALID,917.957,VALID,0,VALID,95.4975,VALID,0,VALID,19.9514,VALID,247,VALID,0,
2001-08-22, 01:13:00,VALID,917.922,VALID,0,VALID,95.5267,VALID,0,VALID,19.9318,VALID,287,VALID,0.132401,
2001-08-22, 01:14:00,VALID,917.872,VALID,0,VALID,95.5191,VALID,0.0169808,VALID,19.9355,VALID,27,VALID,0.393973,
2001-08-22, 01:15:00,VALID,917.843,VALID,0,VALID,95.3653,VALID,0,VALID,19.9223,VALID,19,VALID,0.626689,
2001-08-22, 01:16:00,VALID,917.816,VALID,0,VALID,95.2673,VALID,0,VALID,19.9129,VALID,19,VALID,0.712316,
2001-08-22, 01:17:00,VALID,917.819,VALID,0,VALID,95.1097,VALID,0,VALID,19.8968,VALID,11,VALID,0.829603,
2001-08-22, 01:18:00,VALID,917.819,VALID,0,VALID,95.0563,VALID,0,VALID,19.8973,VALID,9,VALID,0.765869,
2001-08-22, 01:19:00,VALID,917.816,VALID,0,VALID,94.9749,VALID,0,VALID,19.9104,VALID,359,VALID,0.447115,
2001-08-22, 01:20:00,VALID,917.815,VALID,0,VALID,94.9113,VALID,0,VALID,19.9002,VALID,359,VALID,0.528571,
2001-08-22, 01:21:00,VALID,917.821,VALID,0,VALID,94.8236,VALID,-0.0339617,VALID,19.8973,VALID,8,VALID,0.5625,
2001-08-22, 01:22:00,VALID,917.828,VALID,0,VALID,94.7028,VALID,0,VALID,19.8707,VALID,9,VALID,0.735983,
2001-08-22, 01:23:00,VALID,917.821,VALID,0,VALID,94.6176,VALID,-0.0169808,VALID,19.8642,VALID,3,VALID,0.728463,
2001-08-22, 01:24:00,VALID,917.836,VALID,0,VALID,94.6061,VALID,0,VALID,19.855,VALID,3,VALID,0.671464,
2001-08-22, 01:25:00,VALID,917.829,VALID,0,VALID,94.6646,VALID,-0.0169808,VALID,19.8456,VALID,4,VALID,0.912829,
2001-08-22, 01:26:00,VALID,917.834,VALID,0,VALID,94.6824,VALID,0,VALID,19.8192,VALID,7,VALID,1.09732,
2001-08-22, 01:27:00,VALID,917.839,VALID,0,VALID,94.7244,VALID,0,VALID,19.8063,VALID,10,VALID,0.941723,
2001-08-22, 01:28:00,VALID,917.843,VALID,0,VALID,94.7829,VALID,-0.0169808,VALID,19.7936,VALID,8,VALID,0.764476,
2001-08-22, 01:29:00,VALID,917.861,VALID,0,VALID,94.8579,VALID,-0.0169808,VALID,19.7877,VALID,7,VALID,0.581081,
2001-08-22, 01:30:00,VALID,917.858,VALID,0,VALID,94.9278,VALID,-0.101885,VALID,19.7822,VALID,3,VALID,0.408447,
2001-08-22, 01:31:00,VALID,917.841,VALID,0,VALID,95.0283,VALID,-0.101885,VALID,19.7857,VALID,358,VALID,0.561498,
2001-08-22, 01:32:00,VALID,917.85,VALID,0,VALID,95.0715,VALID,-0.101885,VALID,19.7889,VALID,5,VALID,0.33683,
2001-08-22, 01:33:00,VALID,917.869,VALID,0,VALID,95.0156,VALID,-0.101885,VALID,19.7725,VALID,353,VALID,0.496833,
2001-08-22, 01:34:00,VALID,917.865,VALID,0,VALID,95.2025,VALID,-0.118866,VALID,19.7596,VALID,358,VALID,0.471048,
2001-08-22, 01:35:00,VALID,917.859,VALID,0,VALID,95.2915,VALID,-0.101885,VALID,19.7693,VALID,7,VALID,0.46516,
2001-08-22, 01:36:00,VALID,917.854,VALID,0,VALID,95.294,VALID,-0.101885,VALID,19.7462,VALID,21,VALID,0.49815,
2001-08-22, 01:37:00,VALID,917.835,VALID,0,VALID,95.2406,VALID,-0.101885,VALID,19.7372,VALID,21,VALID,0.489309,
2001-08-22, 01:38:00,VALID,917.808,VALID,0,VALID,95.2305,VALID,-0.101885,VALID,19.7044,VALID,20,VALID,0.366964,
2001-08-22, 01:39:00,VALID,917.807,VALID,0,VALID,95.2203,VALID,-0.101885,VALID,19.6662,VALID,21,VALID,0.357475,
2001-08-22, 01:40:00,VALID,917.802,VALID,0,VALID,95.4174,VALID,-0.101885,VALID,19.653,VALID,22,VALID,0.713695,
2001-08-22, 01:41:00,VALID,917.794,VALID,0,VALID,95.6145,VALID,-0.101885,VALID,19.6272,VALID,25,VALID,1.02428,
2001-08-22, 01:42:00,VALID,917.797,VALID,0,VALID,95.6666,VALID,-0.118866,VALID,19.6307,VALID,16,VALID,0.923584,
2001-08-22, 01:43:00,VALID,917.779,VALID,0,VALID,95.5954,VALID,-0.135847,VALID,19.6403,VALID,23,VALID,0.50601,
2001-08-22, 01:44:00,VALID,917.786,VALID,0,VALID,95.5051,VALID,-0.101885,VALID,19.6302,VALID,19,VALID,0.477455,
2001-08-22, 01:45:00,VALID,917.782,VALID,0,VALID,95.5395,VALID,0,VALID,19.6292,VALID,19,VALID,0.435389,
2001-08-22, 01:46:00,VALID,917.785,VALID,0,VALID,95.5166,VALID,0,VALID,19.6326,VALID,18,VALID,0.11443,
2001-08-22, 01:47:00,VALID,917.792,VALID,0,VALID,95.5662,VALID,0,VALID,19.6222,VALID,18,VALID,0.24261,
2001-08-22, 01:48:00,VALID,917.779,VALID,0,VALID,95.584,VALID,0,VALID,19.6257,VALID,18,VALID,0.0682566,
2001-08-22, 01:49:00,VALID,917.767,VALID,0,VALID,95.584,VALID,0,VALID,19.6058,VALID,18,VALID,0,
2001-08-22, 01:50:00,VALID,917.769,VALID,0,VALID,95.6183,VALID,0,VALID,19.616,VALID,18,VALID,0,
2001-08-22, 01:51:00,VALID,917.751,VALID,0,VALID,95.7073,VALID,0,VALID,19.6289,VALID,18,VALID,0,
2001-08-22, 01:52:00,VALID,917.742,VALID,0,VALID,95.7544,VALID,0,VALID,19.6649,VALID,344,VALID,0.0569853,
2001-08-22, 01:53:00,VALID,917.734,VALID,0,VALID,95.6234,VALID,0,VALID,19.6838,VALID,332,VALID,0,
2001-08-22, 01:54:00,VALID,917.714,VALID,0,VALID,95.4695,VALID,-0.0169808,VALID,19.6967,VALID,332,VALID,0.0432129,
2001-08-22, 01:55:00,VALID,917.689,VALID,0,VALID,95.2991,VALID,0,VALID,19.6836,VALID,348,VALID,0.113381,
2001-08-22, 01:56:00,VALID,917.673,VALID,0,VALID,95.0346,VALID,0.0169808,VALID,19.6545,VALID,349,VALID,0.0926339,
2001-08-22, 01:57:00,VALID,917.654,VALID,0,VALID,95.3564,VALID,0,VALID,19.6553,VALID,308,VALID,0.38239,
2001-08-22, 01:58:00,VALID,917.645,VALID,0,VALID,95.5051,VALID,0.0169808,VALID,19.6709,VALID,276,VALID,0.0296415,
2001-08-22, 01:59:00,VALID,917.626,VALID,0,VALID,95.2152,VALID,0.0169808,VALID,19.6483,VALID,276,VALID,0.0572213,
2001-08-22, 02:00:00,VALID,917.624,VALID,0,VALID,95.3589,VALID,0.0169808,VALID,19.6389,VALID,288,VALID,0.331826,
2001-08-22, 02:01:00,VALID,917.618,VALID,0,VALID,95.3195,VALID,0,VALID,19.6322,VALID,291,VALID,0.0154194,
2001-08-22, 02:02:00,VALID,917.596,VALID,0,VALID,95.1949,VALID,0.0169808,VALID,19.6165,VALID,291,VALID,0,
2001-08-22, 02:03:00,VALID,917.573,VALID,0,VALID,95.4365,VALID,0,VALID,19.6028,VALID,294,VALID,0,
2001-08-22, 02:04:00,VALID,917.563,VALID,0,VALID,95.4708,VALID,-0.0169808,VALID,19.5936,VALID,295,VALID,0.153033,
2001-08-22, 02:05:00,VALID,917.556,VALID,0,VALID,95.8396,VALID,0,VALID,19.6165,VALID,295,VALID,0.302365,
2001-08-22, 02:06:00,VALID,917.538,VALID,0,VALID,95.996,VALID,-0.0339617,VALID,19.6423,VALID,295,VALID,0.189453,
2001-08-22, 02:07:00,VALID,917.514,VALID,0,VALID,96.0074,VALID,-0.0169808,VALID,19.652,VALID,295,VALID,0,
2001-08-22, 02:08:00,VALID,917.484,VALID,0,VALID,96.0125,VALID,0.0169808,VALID,19.6649,VALID,295,VALID,0.208705,
2001-08-22, 02:09:00,VALID,917.47,VALID,0,VALID,96.0761,VALID,0,VALID,19.655,VALID,295,VALID,0.140203,
2001-08-22, 02:10:00,VALID,917.45,VALID,0,VALID,96.0875,VALID,0,VALID,19.6617,VALID,294,VALID,0.0459559,
2001-08-22, 02:11:00,VALID,917.441,VALID,0,VALID,96.1422,VALID,0,VALID,19.6709,VALID,292,VALID,0,
2001-08-22, 02:12:00,VALID,917.421,VALID,0,VALID,96.1829,VALID,0,VALID,19.6774,VALID,292,VALID,0.00102796,
2001-08-22, 02:13:00,VALID,917.413,VALID,0,VALID,96.2071,VALID,0,VALID,19.6776,VALID,292,VALID,0,
2001-08-22, 02:14:00,VALID,917.397,VALID,0,VALID,96.2299,VALID,-0.0169808,VALID,19.6717,VALID,292,VALID,0,
2001-08-22, 02:15:00,VALID,917.373,VALID,0,VALID,96.2795,VALID,-0.0849042,VALID,19.6721,VALID,292,VALID,0,
2001-08-22, 02:16:00,VALID,917.342,VALID,0,VALID,96.3075,VALID,-0.101885,VALID,19.6667,VALID,292,VALID,0,
2001-08-22, 02:17:00,VALID,917.314,VALID,0,VALID,96.338,VALID,-0.101885,VALID,19.663,VALID,292,VALID,0,
2001-08-22, 02:18:00,VALID,917.283,VALID,0,VALID,96.3444,VALID,-0.101885,VALID,19.6597,VALID,292,VALID,0,
2001-08-22, 02:19:00,VALID,917.249,VALID,0,VALID,96.3495,VALID,-0.0849042,VALID,19.6597,VALID,292,VALID,0,
2001-08-22, 02:20:00,VALID,917.215,VALID,0,VALID,96.3609,VALID,-0.101885,VALID,19.6602,VALID,292,VALID,0,
2001-08-22, 02:21:00,VALID,917.19,VALID,0,VALID,96.3533,VALID,-0.101885,VALID,19.6503,VALID,292,VALID,0,
2001-08-22, 02:22:00,VALID,917.155,VALID,0,VALID,96.3647,VALID,-0.101885,VALID,19.6468,VALID,292,VALID,0,
2001-08-22, 02:23:00,VALID,917.132,VALID,0,VALID,96.4334,VALID,-0.101885,VALID,19.6565,VALID,255,VALID,0.230363,
2001-08-22, 02:24:00,VALID,917.115,VALID,0,VALID,96.4906,VALID,-0.0849042,VALID,19.6436,VALID,213,VALID,0.39412,
2001-08-22, 02:25:00,VALID,917.1,VALID,0,VALID,96.5555,VALID,-0.101885,VALID,19.6371,VALID,211,VALID,0.0341283,
2001-08-22, 02:26:00,VALID,917.099,VALID,0,VALID,96.5936,VALID,-0.101885,VALID,19.6471,VALID,211,VALID,0.0301339,
2001-08-22, 02:27:00,VALID,917.096,VALID,0,VALID,96.5771,VALID,-0.0849042,VALID,19.6371,VALID,211,VALID,0,
2001-08-22, 02:28:00,VALID,917.084,VALID,0,VALID,96.5466,VALID,-0.0849042,VALID,19.6272,VALID,211,VALID,0,
2001-08-22, 02:29:00,VALID,917.078,VALID,0,VALID,96.5237,VALID,-0.0679233,VALID,19.6145,VALID,211,VALID,0,
2001-08-22, 02:30:00,VALID,917.08,VALID,0,VALID,96.497,VALID,0,VALID,19.5802,VALID,211,VALID,0,
2001-08-22, 02:31:00,VALID,917.073,VALID,0,VALID,96.5046,VALID,0.0169808,VALID,19.5842,VALID,211,VALID,0,
2001-08-22, 02:32:00,VALID,917.058,VALID,0,VALID,96.4919,VALID,0,VALID,19.5611,VALID,211,VALID,0,
2001-08-22, 02:33:00,VALID,917.032,VALID,0,VALID,96.4805,VALID,0.0169808,VALID,19.5422,VALID,211,VALID,0,
2001-08-22, 02:34:00,VALID,917.02,VALID,0,VALID,96.5211,VALID,0,VALID,19.5164,VALID,211,VALID,0,
2001-08-22, 02:35:00,VALID,917.011,VALID,0,VALID,96.5695,VALID,-0.0339617,VALID,19.5005,VALID,211,VALID,0,
2001-08-22, 02:36:00,VALID,917.002,VALID,0,VALID,96.6025,VALID,0,VALID,19.497,VALID,211,VALID,0,
2001-08-22, 02:37:00,VALID,916.972,VALID,0,VALID,96.6737,VALID,-0.0169808,VALID,19.494,VALID,211,VALID,0,
2001-08-22, 02:38:00,VALID,916.95,VALID,0,VALID,96.689,VALID,0,VALID,19.4811,VALID,211,VALID,0,
2001-08-22, 02:39:00,VALID,916.928,VALID,0,VALID,96.6992,VALID,0,VALID,19.4682,VALID,211,VALID,0,
2001-08-22, 02:40:00,VALID,916.907,VALID,0,VALID,96.6801,VALID,0,VALID,19.4518,VALID,211,VALID,0,
2001-08-22, 02:41:00,VALID,916.913,VALID,0,VALID,96.6585,VALID,0,VALID,19.4458,VALID,211,VALID,0,
2001-08-22, 02:42:00,VALID,916.884,VALID,0,VALID,96.6636,VALID,-0.0169808,VALID,19.4262,VALID,211,VALID,0,
2001-08-22, 02:43:00,VALID,916.881,VALID,0,VALID,96.6814,VALID,0,VALID,19.413,VALID,211,VALID,0,
2001-08-22, 02:44:00,VALID,916.864,VALID,0,VALID,96.6254,VALID,-0.0169808,VALID,19.3907,VALID,211,VALID,0,
2001-08-22, 02:45:00,VALID,916.866,VALID,0,VALID,96.572,VALID,0.0169808,VALID,19.3676,VALID,211,VALID,0,
2001-08-22, 02:46:00,VALID,916.898,VALID,0,VALID,96.5657,VALID,0,VALID,19.345,VALID,211,VALID,0,
2001-08-22, 02:47:00,VALID,916.897,VALID,0,VALID,96.6369,VALID,0,VALID,19.339,VALID,211,VALID,0,
2001-08-22, 02:48:00,VALID,916.892,VALID,0,VALID,96.7233,VALID,0,VALID,19.3323,VALID,211,VALID,0,
2001-08-22, 02:49:00,VALID,916.881,VALID,0,VALID,96.6941,VALID,0.0169808,VALID,19.3159,VALID,211,VALID,0,
2001-08-22, 02:50:00,VALID,916.872,VALID,0,VALID,96.647,VALID,0,VALID,19.2935,VALID,211,VALID,0,
2001-08-22, 02:51:00,VALID,916.872,VALID,0,VALID,96.6508,VALID,-0.0169808,VALID,19.2841,VALID,211,VALID,0,
2001-08-22, 02:52:00,VALID,916.857,VALID,0,VALID,96.6763,VALID,0,VALID,19.2612,VALID,211,VALID,0,
2001-08-22, 02:53:00,VALID,916.842,VALID,0,VALID,96.7322,VALID,-0.0169808,VALID,19.2682,VALID,211,VALID,0,
2001-08-22, 02:54:00,VALID,916.837,VALID,0,VALID,96.8543,VALID,0,VALID,19.2647,VALID,211,VALID,0,
2001-08-22, 02:55:00,VALID,916.838,VALID,0,VALID,96.8492,VALID,0,VALID,19.2687,VALID,211,VALID,0,
2001-08-22, 02:56:00,VALID,916.834,VALID,0,VALID,96.9103,VALID,-0.0169808,VALID,19.2548,VALID,211,VALID,0.003125,
2001-08-22, 02:57:00,VALID,916.791,VALID,0,VALID,96.8162,VALID,0,VALID,19.2389,VALID,211,VALID,0.288429,
2001-08-22, 02:58:00,VALID,916.784,VALID,0,VALID,96.8696,VALID,0,VALID,19.2421,VALID,211,VALID,0.44807,
2001-08-22, 02:59:00,VALID,916.756,VALID,0,VALID,96.881,VALID,0,VALID,19.2419,VALID,211,VALID,0.144003,
2001-08-22, 03:00:00,VALID,916.753,VALID,0,VALID,96.8352,VALID,0,VALID,19.2359,VALID,211,VALID,0,
2001-08-22, 03:01:00,VALID,916.732,VALID,0,VALID,96.867,VALID,0.0169808,VALID,19.2252,VALID,211,VALID,0.13713,
2001-08-22, 03:02:00,VALID,916.719,VALID,0,VALID,96.9751,VALID,0,VALID,19.2356,VALID,13,VALID,0.357589,
2001-08-22, 03:03:00,VALID,916.727,VALID,0,VALID,97.0069,VALID,0,VALID,19.249,VALID,20,VALID,0.258868,
2001-08-22, 03:04:00,VALID,916.743,VALID,0,VALID,97.0272,VALID,0,VALID,19.2488,VALID,20,VALID,0.357537,
2001-08-22, 03:05:00,VALID,916.742,VALID,0,VALID,96.9611,VALID,-0.0169808,VALID,19.2654,VALID,18,VALID,0,
2001-08-22, 03:06:00,VALID,916.753,VALID,0,VALID,96.8874,VALID,-0.0169808,VALID,19.252,VALID,18,VALID,0,
2001-08-22, 03:07:00,VALID,916.76,VALID,0,VALID,96.8683,VALID,0,VALID,19.2356,VALID,18,VALID,0.0424679,
2001-08-22, 03:08:00,VALID,916.758,VALID,0,VALID,97.1646,VALID,0,VALID,19.2582,VALID,354,VALID,0.282589,
2001-08-22, 03:09:00,VALID,916.774,VALID,0,VALID,97.1938,VALID,0,VALID,19.2905,VALID,340,VALID,0,
2001-08-22, 03:10:00,VALID,916.778,VALID,0,VALID,97.0349,VALID,-0.0169808,VALID,19.2972,VALID,348,VALID,0.173024,
2001-08-22, 03:11:00,VALID,916.773,VALID,0,VALID,96.8619,VALID,0,VALID,19.2746,VALID,13,VALID,0.423775,
2001-08-22, 03:12:00,VALID,916.77,VALID,0,VALID,96.8212,VALID,0,VALID,19.2682,VALID,15,VALID,0.671053,
2001-08-22, 03:13:00,VALID,916.772,VALID,0,VALID,96.8238,VALID,-0.0339617,VALID,19.2689,VALID,13,VALID,0.797903,
2001-08-22, 03:14:00,VALID,916.782,VALID,0,VALID,96.9726,VALID,0,VALID,19.2779,VALID,37,VALID,0.614286,
2001-08-22, 03:15:00,VALID,916.796,VALID,0,VALID,96.9052,VALID,0,VALID,19.2746,VALID,13,VALID,0.370355,
2001-08-22, 03:16:00,VALID,916.8,VALID,0,VALID,96.8861,VALID,0.0339617,VALID,19.2513,VALID,15,VALID,0.773667,
2001-08-22, 03:17:00,VALID,916.801,VALID,0,VALID,96.9675,VALID,0,VALID,19.2607,VALID,14,VALID,0.760557,
2001-08-22, 03:18:00,VALID,916.786,VALID,0,VALID,96.9573,VALID,0.0169808,VALID,19.2381,VALID,14,VALID,0.978027,
2001-08-22, 03:19:00,VALID,916.786,VALID,0,VALID,97.176,VALID,0,VALID,19.2675,VALID,9,VALID,0.779848,
2001-08-22, 03:20:00,VALID,916.785,VALID,0,VALID,97.0222,VALID,0,VALID,19.2809,VALID,15,VALID,0.648214,
2001-08-22, 03:21:00,VALID,916.796,VALID,0,VALID,96.8734,VALID,0,VALID,19.2515,VALID,15,VALID,0.726351,
2001-08-22, 03:22:00,VALID,916.794,VALID,0,VALID,96.97,VALID,0,VALID,19.2806,VALID,13,VALID,0.602482,
2001-08-22, 03:23:00,VALID,916.786,VALID,0,VALID,96.7208,VALID,0,VALID,19.2612,VALID,21,VALID,0.749789,
2001-08-22, 03:24:00,VALID,916.802,VALID,0,VALID,96.497,VALID,0.0339617,VALID,19.2456,VALID,15,VALID,0.611225,
2001-08-22, 03:25:00,VALID,916.8,VALID,0,VALID,96.3393,VALID,-0.0169808,VALID,19.181,VALID,16,VALID,0.789679,
2001-08-22, 03:26:00,VALID,916.807,VALID,0,VALID,96.6127,VALID,0,VALID,19.1577,VALID,19,VALID,0.666295,
2001-08-22, 03:27:00,VALID,916.817,VALID,0,VALID,96.6903,VALID,0,VALID,19.1489,VALID,22,VALID,0.432644,
2001-08-22, 03:28:00,VALID,916.813,VALID,0,VALID,96.7945,VALID,0,VALID,19.1358,VALID,23,VALID,0.238281,
2001-08-22, 03:29:00,VALID,916.815,VALID,0,VALID,96.8886,VALID,0.0169808,VALID,19.1482,VALID,23,VALID,0.242399,
2001-08-22, 03:30:00,VALID,916.81,VALID,0,VALID,96.9103,VALID,0.0169808,VALID,19.1517,VALID,23,VALID,0.227539,
2001-08-22, 03:31:00,VALID,916.805,VALID,0,VALID,96.895,VALID,0.0169808,VALID,19.1549,VALID,23,VALID,0.290865,
2001-08-22, 03:32:00,VALID,916.79,VALID,0,VALID,96.9103,VALID,-0.0169808,VALID,19.1547,VALID,23,VALID,0.205134,
2001-08-22, 03:33:00,VALID,916.758,VALID,0,VALID,96.8963,VALID,0.0169808,VALID,19.1713,VALID,23,VALID,0.0396959,
2001-08-22, 03:34:00,VALID,916.735,VALID,0,VALID,96.8734,VALID,0.0169808,VALID,19.1678,VALID,23,VALID,0,
2001-08-22, 03:35:00,VALID,916.703,VALID,0,VALID,97.0005,VALID,0,VALID,19.1743,VALID,23,VALID,0,
2001-08-22, 03:36:00,VALID,916.694,VALID,0,VALID,97.0578,VALID,0,VALID,19.2004,VALID,23,VALID,0,
2001-08-22, 03:37:00,VALID,916.671,VALID,0,VALID,97.0031,VALID,-0.0169808,VALID,19.1976,VALID,23,VALID,0,
2001-08-22, 03:38:00,VALID,916.671,VALID,0,VALID,97.0018,VALID,-0.0169808,VALID,19.1909,VALID,23,VALID,0,
2001-08-22, 03:39:00,VALID,916.656,VALID,0,VALID,96.9751,VALID,-0.0679233,VALID,19.1812,VALID,23,VALID,0,
2001-08-22, 03:40:00,VALID,916.656,VALID,0,VALID,96.9192,VALID,0,VALID,19.1646,VALID,23,VALID,0,